Lapse_Rate
3.7 2.7 2.0 2.0 2.4 2.7 2.7 2.4 2.1 1.7 1.3 1.6 2.0 2.2 2.1 2.5 2.1 2.1 2.2 2.4 2.4 2.3 2.0 1.9 2.3 1.2 0.4 0.6 0.2 -0.7 0.4 1.4
3.3 2.8 2.5 2.1 2.1 1.9 2.5 2.1 1.6 1.8 1.5 2.1 2.0 2.2 2.4 2.0 2.0 2.4 2.3 2.1 2.1 2.1 1.7 1.8 1.8 0.5 0.5 0.7 0.3 1.4 1.6 1.2
3.0 2.5 2.5 2.4 2.3 1.9 1.7 2.0 1.5 1.8 2.8 1.6 2.0 1.2 1.6 2.2 1.7 2.1 2.1 2.4 2.6 2.5 2.0 1.2 1.2 0.2 0.5 1.3 1.6 1.8 2.0 1.4
3.2 2.8 2.5 2.5 1.7 1.6 1.7 1.8 1.7 2.2 2.0 1.6 0.6 1.4 1.7 1.4 0.7 0.6 0.9 2.3 2.8 3.0 2.2 1.6 1.2 1.3 0.9 1.2 1.9 3.0 2.7 1.7
3.3 3.2 2.5 2.3 2.1 1.4 1.8 1.6 1.8 2.0 1.6 2.7 1.6 2.2 1.3 1.1 1.2 0.8 0.6 2.4 2.7 2.8 2.3 2.0 1.4 1.3 1.2 1.8 2.3 1.9 1.0 1.7
2.7 2.4 2.4 2.1 0.9 0.4 0.7 1.2 1.7 1.8 2.3 2.7 2.1 1.7 1.4 0.7 0.2 0.7 0.6 1.4 2.2 2.3 2.0 1.7 1.2 1.8 2.1 2.6 1.7 2.1 0.2 1.2
2.6 2.1 1.8 1.0 0.3 0.4 0.6 0.8 1.1 1.8 2.2 2.0 1.9 1.6 1.1 1.7 1.1 0.7 0.4 0.1 0.1 1.3 1.9 1.6 2.2 2.3 1.9 2.1 0.3 1.9 1.5 1.8
1.3 1.1 0.8 0.1 0.2 0.8 0.9 1.1 1.7 2.0 2.1 2.1 1.4 1.2 2.4 3.2 2.4 1.0 0.8 -0.5 -0.4 -0.2 0.6 0.6 1.5 2.5 3.1 2.0 2.1 3.2 2.0 2.3
1.4 1.3 0.7 0.3 0.2 0.4 1.0 1.8 1.9 1.2 1.5 2.2 1.5 2.2 2.9 3.0 3.2 1.6 1.7 0.7 -0.0 0.5 1.6 2.4 2.8 2.1 0.9 3.1 2.9 3.1 2.3 2.0
1.1 0.7 0.5 -0.0 0.4 0.4 1.1 1.5 1.4 1.1 1.4 2.2 2.5 2.4 2.3 2.7 2.2 1.8 1.0 0.6 1.4 1.7 2.0 0.5 0.7 1.3 3.8 4.2 4.0 3.4 2.6 2.2
0.8 1.1 0.4 -0.1 0.0 0.6 0.8 0.9 1.4 1.4 0.8 1.2 1.7 0.9 0.7 -0.2 -0.6 1.0 0.6 1.4 1.7 0.7 1.1 1.8 2.3 3.7 4.7 4.8 4.3 3.2 2.8 2.6
-0.3 0.0 0.4 0.7 1.0 1.0 0.4 0.7 1.5 0.3 0.2 0.0 0.2 -0.5 -0.5 -0.8 -0.2 -0.1 -0.1 0.8 1.2 1.6 1.9 3.2 4.1 4.6 4.9 5.5 4.3 3.1 3.3 3.0
0.2 0.3 -0.0 0.1 0.4 0.6 0.3 0.8 0.5 -0.6 -1.6 -0.8 -0.7 -0.8 -0.5 -0.5 -0.8 1.0 0.6 0.4 1.4 2.9 3.5 3.8 5.1 5.6 5.6 5.2 3.7 4.2 3.3 2.8
0.2 0.3 0.4 0.2 0.3 0.9 0.6 -0.0 -0.9 -2.0 -2.2 -2.2 -1.8 -1.5 -0.8 0.1 0.4 0.3 1.2 2.2 2.4 2.3 4.3 5.1 5.5 5.5 5.8 4.8 4.9 3.8 3.3 2.9
-0.1 -0.1 0.1 1.0 0.9 0.5 -0.7 -1.2 -1.8 -2.4 -2.3 -1.5 -1.3 -1.3 0.1 1.2 1.4 1.8 2.3 2.7 2.6 4.6 4.9 5.6 6.4 6.8 5.8 6.0 5.4 4.7 3.3 3.0
1.5 1.3 0.8 0.8 0.7 0.5 -0.8 -1.9 -2.4 -2.2 -1.8 -1.5 -1.0 0.4 1.0 1.5 1.7 1.3 2.2 2.3 4.1 4.7 5.3 4.7 5.1 5.4 6.8 6.6 5.9 4.2 3.0 2.8
1.8 1.7 1.8 1.5 1.0 0.7 0.5 -0.3 -0.8 -0.3 -0.4 0.0 0.9 1.8 2.1 1.9 1.5 1.7 2.6 3.7 4.1 4.9 4.5 4.5 4.8 5.6 5.5 5.2 4.5 3.1 3.0 2.8
-0.0 -1.0 -1.7 -1.8 -1.9 -0.7 -1.0 -1.8 -1.2 -0.3 0.5 1.3 2.2 2.4 2.6 2.9 3.3 3.6 4.4 5.2 4.7 4.3 4.3 4.4 4.6 4.3 4.3 4.3 3.8 2.7 2.6 2.6
-1.9 -2.5 -2.5 -2.9 -3.1 -3.2 -3.0 -2.4 -0.9 0.6 1.5 2.3 3.2 3.1 3.0 3.7 4.8 5.2 4.8 4.2 4.3 4.1 3.8 3.7 3.8 3.8 3.7 3.5 3.4 2.7 2.3 2.6
Wind_Speed
11 9 8 7 7 7 7 6 6 6 6 6 6 6 5 8 9 11 14 15 16 16 14 15 15 9 5 4 3 5 3 1
8 8 9 9 8 8 9 9 8 7 3 4 3 4 3 2 7 12 14 16 17 16 12 12 11 4 4 4 3 4 2 1
10 9 10 12 12 12 11 11 11 9 7 3 3 3 2 2 7 11 14 16 17 15 14 9 10 4 5 4 4 2 1 2
10 12 14 12 13 13 12 12 12 10 8 5 4 4 3 2 2 3 7 16 17 16 14 13 10 8 4 3 3 4 3 1
12 13 12 14 10 7 8 10 11 9 11 10 7 6 4 4 4 3 6 14 14 15 16 14 12 11 5 4 5 3 4 3
15 16 16 13 9 9 7 8 10 9 12 10 8 5 3 2 3 6 4 7 14 15 16 17 14 11 9 6 4 2 1 3
14 11 8 7 6 9 10 12 12 10 11 9 10 8 6 4 3 6 5 3 6 13 16 16 16 12 8 6 6 2 3 3
11 12 10 9 11 11 9 12 13 12 12 11 8 8 9 10 9 7 8 5 4 8 14 11 11 11 9 7 5 4 4 3
13 14 12 11 12 11 11 11 11 12 11 11 8 11 8 7 8 7 7 7 7 13 12 12 12 14 14 10 5 4 5 4
12 9 11 10 11 13 13 12 12 11 13 10 10 9 10 9 10 8 7 6 7 14 16 15 15 13 10 7 3 4 4 4
6 8 9 10 11 10 10 12 14 11 10 10 8 9 9 10 10 12 13 12 15 13 11 8 9 11 10 8 4 3 5 4
7 8 9 10 8 9 11 10 10 8 9 6 7 7 9 10 11 12 15 12 8 7 5 6 4 4 3 4 4 5 7 6
6 6 7 9 11 10 11 10 10 7 7 7 7 8 9 8 6 5 7 7 9 6 5 6 6 5 5 6 6 6 7 7
6 7 9 10 8 8 8 8 7 6 6 6 7 7 8 6 6 7 9 9 8 6 6 4 5 5 5 6 7 7 7 7
6 6 6 6 6 6 7 5 4 7 7 7 7 5 6 7 8 8 9 7 8 4 4 4 3 1 5 6 6 6 6 7
3 3 4 4 4 5 5 4 5 5 5 6 6 6 7 7 9 9 8 8 6 7 8 6 1 4 3 6 7 7 7 6
8 7 4 2 4 5 5 6 6 8 8 7 8 7 8 8 9 10 10 8 9 7 4 4 3 3 13 15 9 6 6 7
8 8 7 8 7 2 4 6 6 7 8 8 9 10 10 9 9 9 8 5 4 3 4 4 7 7 9 10 10 5 6 6
8 7 8 8 6 9 8 8 8 9 9 9 9 11 11 10 8 6 4 2 2 3 5 6 5 5 9 9 7 5 5 6
Wind_Direction
195 174 165 173 189 172 164 158 155 152 141 122 114 124 144 166 158 165 161 160 154 143 141 141 142 118 103 100 114 60 71 22
193 182 168 171 182 174 177 164 167 152 141 142 141 168 166 155 165 163 160 162 157 149 140 137 135 122 145 119 81 83 33 360
182 180 180 185 189 188 177 178 170 174 170 146 145 147 179 150 155 167 170 164 162 154 146 138 131 125 105 100 97 104 198 201
199 193 195 190 193 191 184 181 176 177 158 132 90 90 84 102 144 160 174 172 169 161 144 137 136 122 115 105 119 164 183 284
197 199 202 203 199 179 184 174 177 176 165 172 169 177 160 194 170 148 153 171 158 150 145 141 121 116 118 144 171 180 166 117
201 201 200 198 174 178 168 161 177 176 183 185 182 170 147 126 121 138 138 143 153 150 142 129 132 132 140 141 128 220 88 107
204 196 173 180 159 167 170 174 187 184 187 185 185 175 145 138 168 159 155 138 140 143 142 142 144 145 143 138 132 112 95 135
187 178 178 173 177 177 182 183 194 195 197 195 186 172 175 193 186 172 166 155 162 164 154 151 145 133 126 155 141 153 172 169
193 189 182 182 181 180 188 196 200 193 194 204 183 187 192 197 183 174 187 174 156 157 152 146 147 149 180 170 169 164 170 164
196 169 183 178 179 190 189 197 206 200 204 201 198 186 184 192 177 174 167 154 153 158 169 168 168 187 180 170 184 179 173 172
178 173 177 193 193 193 196 201 209 207 194 195 195 190 197 185 171 177 172 175 176 177 174 154 170 186 182 180 173 162 200 211
189 190 191 195 195 200 204 206 211 204 199 180 183 177 184 183 181 188 186 179 167 152 143 166 171 156 132 199 198 191 211 211
194 194 185 197 204 199 203 208 215 207 189 171 190 175 168 174 173 146 123 129 130 146 155 146 153 166 193 211 218 214 209 212
181 173 191 205 209 207 215 215 204 170 149 149 154 164 174 165 134 126 130 140 143 153 157 168 175 199 184 213 223 225 222 218
199 197 201 169 183 177 213 212 185 160 150 165 168 163 133 131 132 130 125 136 136 118 115 77 73 53 238 239 238 244 230 224
248 244 220 166 185 179 197 148 134 134 135 147 133 112 115 115 115 103 90 89 79 100 85 83 188 267 268 309 278 242 230 228
45 24 352 322 211 214 194 172 157 147 138 125 124 118 113 107 100 103 108 103 85 97 154 185 252 280 256 257 259 250 234 217
41 31 26 20 23 42 100 100 97 95 109 118 118 114 108 104 101 92 87 95 101 175 209 230 246 249 259 273 277 244 227 218
29 21 31 26 34 55 71 72 83 90 89 93 99 105 106 105 99 93 85 87 239 235 238 245 250 263 263 275 278 247 231 229